Location: Biltmore Gardens
(41.6070°N, 83.4666°W)
Time: 14:35:14
(UTC+00:00)

BREEZE-M DEB (TANK) - Pass Details

Date: 14 July 2020
Orbit: 275 x 20501 km, 49.2° (Epoch: 12 August)

Event Time Altitude Azimuth Distance (km) Brightness Sun altitude
Exits shadow 07:57:56 - 299° (WNW) 1,807 5.4 -19.2°
Reaches altitude 10° 07:58:24 10° 299° (WNW) 1,581 5.1 -19.1°
Maximum altitude 08:01:22 84° 210° (SSW) 766 3.4 -18.8°
Drops below altitude 10° 08:11:55 10° 124° (SE) 5,362 7.8 -17.7°
Sets 08:20:35 0° 125° (SE) 8,849 9.0 -16.7°
